Regional Weather Roundup
Issued by NWS

Home | Current Version | Previous Version | Graphics & Text | Print | Product List | Glossary On
Versions: 1 2 3 4 5 6 7 8 9 10 11 12 13 14 15 16 17 18 19 20 21 22 23 24 25 26 27 28 29 30 31 32 33 34 35 36 37 38 39 40 41 42 43 44 45 46 47 48 49 50
000
ASUS43 KDMX 310807
RWRIA

WEATHER ROUNDUP FOR IOWA
NATIONAL WEATHER SERVICE DES MOINES IA
300 AM CDT MON AUG 31 2015

NOTE: "FAIR" INDICATES FEW OR NO CLOUDS BELOW 12,000 FEET WITH NO
SIGNIFICANT WEATHER AND/OR OBSTRUCTIONS TO VISIBILITY.

* - THESE STATIONS ARE NOT NWS STATIONS...THUS NOT UNDER NWS
QUALITY CONTROL.  THEY ALSO DO NOT REPORT WEATHER SUCH
AS PRECIPITATION OR FOG.

IAZ001>003-012>014-020>022-031>034-043>046-310900-
   NORTHWEST IOWA

CITY           SKY/WX    TMP DP  RH WIND       PRES   REMARKS
CARROLL *      FOG       61  61 100 CALM      29.97F VSB 0
CHEROKEE *     CLEAR     64  64 100 S7        29.95F FOG
DENISON *      CLOUDY    66  64  94 SE8       29.95S FOG
LE MARS *      PTCLDY    66  66 100 S8        29.94S
ORANGE CITY *  CLEAR     64  64 100 S7        29.94S FOG
SHELDON *      CLOUDY    64  64 100 S8G15     29.92F FOG
SPENCER        PTCLDY    64  61  90 S7        29.95F FOG
STORM LAKE *   CLEAR     63  63 100 S6        29.98S FOG
$$

IAZ055>058-069>071-079>083-090>094-310900-
   SOUTHWEST IOWA

CITY           SKY/WX    TMP DP  RH WIND       PRES   REMARKS
ATLANTIC *     CLOUDY    61  61 100 N3        29.97F FOG
AUDUBON *      PTCLDY    59  57  94 CALM      29.99S FOG
CLARINDA *     PTCLDY    64  64 100 CALM      29.98S FOG
COUNCIL BLFS * CLEAR     66  66 100 CALM      29.96S FOG
CRESTON *      PTCLDY    66  64  94 SE6       30.00S FOG
HARLAN  *      FOG       59 N/A N/A CALM      30.00F VSB 1/4
LAMONI         MOCLDY    71  67  87 SE3       29.98F
RED OAK *      CLEAR     63  63 100 CALM      29.97S FOG
SHENANDOAH *   FOG       64  64 100 CALM      29.97S VSB 1
$$

IAZ047>049-059>061-072>074-084-310900-
   CENTRAL IOWA

CITY           SKY/WX    TMP DP  RH WIND       PRES   REMARKS
AMES           FOG       63  62  97 SE3       29.99S VSB 1/4
ANKENY *       FOG       64  64 100 CALM      29.98S VSB 1/4
CHARITON *     CLEAR     66  66 100 SE6       29.99S FOG
DES MOINES     CLEAR     70  66  87 SE8       29.97F
GRINNELL*      FOG       61  61 100 E3        30.01S VSB 3/4
KNOXVILLE *    CLEAR     66  64  94 SE6       29.98S FOG
MARSHALLTOWN   FOG       61  61 100 SE5       29.99F VSB 3/4
PELLA *        CLEAR     66  66 100 SE5       30.00F FOG
PERRY *        FOG       63  63 100 CALM      29.99S VSB 1/2
$$

IAZ004>006-015-016-023>025-035-036-310900-
   NORTH CENTRAL IOWA

CITY           SKY/WX    TMP DP  RH WIND       PRES   REMARKS
ALGONA *       FOG       64  64 100 S8        29.98S VSB 1/4
CLARION *      FOG       66  64  94 S9        29.99S VSB 1/4
ESTHERVILLE    MOCLDY    62  62 100 S10       29.95F FOG
FORT DODGE *   CLEAR     64  63  94 S5        29.99S
MASON CITY     FOG       61  61 100 S6        30.00F VSB 1/4
FOREST CITY *  FOG       59  59 100 CALM      29.99S VSB 1/4
IOWA FALLS *   FOG       61  61 100 CALM      30.01S VSB 1/2
$$

IAZ007>011-017>019-026>030-037>042-050>054-066-310900-
   NORTHEAST IOWA

CITY           SKY/WX    TMP DP  RH WIND       PRES   REMARKS
CEDAR RAPIDS   FOG       61  61 100 SE5       30.01S VSB 3/4
CHARLES CITY * FOG       63  63 100 S6        30.01S VSB 1/4
CLINTON *      CLEAR     59  57  94 E5        30.05R
DECORAH *      CLOUDY    64  64 100 S6        30.01S
DUBUQUE        FOG       60  59  96 CALM      30.03S VSB 1/4
MONTICELLO *   FOG       57  57 100 CALM      30.02S VSB 1/4
OELWEIN *      FOG       59  59 100 SE5       30.02F VSB 1
WATERLOO       CLEAR     61  60  97 CALM      30.00F FOG
$$

IAZ064-065-067-068-078-310900-
   EAST CENTRAL IOWA

CITY           SKY/WX    TMP DP  RH WIND       PRES   REMARKS
DAVENPORT      CLEAR     62  61  96 E3        30.02S FOG
IOWA CITY      FOG       62  61  96 CALM      30.02S VSB 1/4
MT. PLEASANT * CLEAR     66  64  94 CALM      30.01R FOG
MUSCATINE *    FOG       61  61 100 CALM      30.01S VSB 1/4
QUAD CITIES    CLEAR     62  59  90 SE3       30.02R
$$

IAZ062-063-075>077-085>089-095>099-310900-
   SOUTHEAST IOWA

CITY           SKY/WX    TMP DP  RH WIND       PRES   REMARKS
BURLINGTON     CLEAR     68  66  93 SE3       30.01S
FAIRFIELD *    CLEAR     64  63  94 SE6       30.00S FOG
FORT MADISON * CLEAR     66  66 100 CALM      30.01F FOG
KEOKUK *       CLEAR     68  68 100 E5        30.00S FOG
OSKALOOSA *      N/A     64  63  94 E3        30.00S FOG
CENTERVILLE *  CLEAR     64  64 100 E5        30.01S FOG
OTTUMWA        CLEAR     65  65 100 E3        29.99R FOG
WASHINGTON *     N/A    N/A N/A N/A MISG        N/A
$$

ABBREVIATIONS USED IN REMARKS
   TC - TEMPERATURES IN CELSIUS
  WCI - WIND CHILL INDEX
   HX - HEAT INDEX
  VSB - VISIBILITY
$$




USA.gov is the U.S. government's official web portal to all federal, state and local government web resources and services.